This is the latest recevied weather packets stored in our database for station/object EA6AMR-10. If no packets are shown the sender has not sent any weather packets the latest 10 day(s).
| Time | Temp. | Humidity | Pressure | Rain* | Wind** | Luminosity | Snow |
|---|---|---|---|---|---|---|---|
| 1777661076 | 20.56° C | 57% | 1021.9 hPa | - | - | - | - |
| 1777660176 | 20.56° C | 57% | 1021.7 hPa | - | - | - | - |
| 1777659275 | 20.56° C | 57% | 1021.6 hPa | - | - | - | - |
| 1777658375 | 20.56° C | 58% | 1021.4 hPa | - | - | - | - |
| 1777657475 | 20.56° C | 58% | 1021.4 hPa | - | - | - | - |
| 1777656575 | 20.56° C | 58% | 1021.3 hPa | - | - | - | - |
| 1777655675 | 20.56° C | 58% | 1021.2 hPa | - | - | - | - |
| 1777654774 | 20.56° C | 58% | 1021.2 hPa | - | - | - | - |
| 1777653874 | 20.56° C | 58% | 1021 hPa | - | - | - | - |
| 1777652974 | 20.56° C | 58% | 1021.1 hPa | - | - | - | - |
| 1777652074 | 20.56° C | 58% | 1021 hPa | - | - | - | - |
| 1777651174 | 20.56° C | 58% | 1020.9 hPa | - | - | - | - |
| 1777650274 | 20° C | 58% | 1020.9 hPa | - | - | - | - |
| 1777649373 | 20° C | 58% | 1020.9 hPa | - | - | - | - |
| 1777648473 | 20° C | 57% | 1020.8 hPa | - | - | - | - |
| 1777647573 | 21.67° C | 56% | 1020.6 hPa | - | - | - | - |
| 1777646672 | 21.67° C | 56% | 1020.5 hPa | - | - | - | - |
| 1777645776 | 22.22° C | 56% | 1020.5 hPa | - | - | - | - |
| 1777644876 | 22.78° C | 55% | 1020.6 hPa | - | - | - | - |
| 1777643975 | 22.78° C | 55% | 1020.6 hPa | - | - | - | - |
| 1777643075 | 22.22° C | 56% | 1020.6 hPa | - | - | - | - |
| 1777642175 | 22.22° C | 56% | 1020.5 hPa | - | - | - | - |
| 1777641275 | 21.11° C | 57% | 1020.5 hPa | - | - | - | - |
| 1777640375 | 22.22° C | 54% | 1020.5 hPa | - | - | - | - |
| 1777639474 | 22.78° C | 53% | 1020.6 hPa | - | - | - | - |
* Rain since midnight (hover to see other rain measurements)
** Current wind speed in m/s (hover to see current wind gust speed)